Location: Brahman Valley
(40.6513°N, 111.8855°W)
Time: 07:50:34
(UTC+00:00)

Tiros 1 despin weight - Pass Details

Date: 17 May 2021
Orbit: 594 x 641 km, 48.2° (Epoch: 22 June)

Event Time Altitude Azimuth Distance (km) Brightness Sun altitude
Rises 00:33:22 0° 193° (SSW) 2,881 ? 21.9°
Reaches altitude 10° 00:36:19 10° 174° (S) 1,989 ? 21.3°
Maximum altitude 00:39:19 17° 133° (SE) 1,569 ? 20.8°
Drops below altitude 10° 00:42:22 10° 91° (E) 2,014 ? 20.2°
Sets 00:45:21 0° 72° (ENE) 2,933 ? 19.6°
